Year,Month,Day,Hour,Minute,Value (Times are PST for temperature in C)
2009,12,07,00,00,-6.20
2009,12,07,00,01,-6.20
2009,12,07,00,02,-6.20
2009,12,07,00,03,-6.20
2009,12,07,00,04,-6.20
2009,12,07,00,05,-6.20
2009,12,07,00,06,-6.20
2009,12,07,00,07,-6.20
2009,12,07,00,08,-6.20
2009,12,07,00,09,-6.20
2009,12,07,00,10,-6.20
2009,12,07,00,11,-6.20
2009,12,07,00,12,-6.20
2009,12,07,00,13,-6.30
2009,12,07,00,14,-6.30
2009,12,07,00,15,-6.30
2009,12,07,00,16,-6.30
2009,12,07,00,17,-6.30
2009,12,07,00,18,-6.30
2009,12,07,00,19,-6.30
2009,12,07,00,20,-6.30
2009,12,07,00,21,-6.30
2009,12,07,00,22,-6.30
2009,12,07,00,23,-6.30
2009,12,07,00,24,-6.30
2009,12,07,00,25,-6.30
2009,12,07,00,26,-6.40
2009,12,07,00,27,-6.40
2009,12,07,00,28,-6.40
2009,12,07,00,29,-6.40
2009,12,07,00,30,-6.40
2009,12,07,00,31,-6.40
2009,12,07,00,32,-6.40
2009,12,07,00,33,-6.40
2009,12,07,00,34,-6.40
2009,12,07,00,35,-6.40
2009,12,07,00,36,-6.40
2009,12,07,00,37,-6.40
2009,12,07,00,38,-6.40
2009,12,07,00,39,-6.40
2009,12,07,00,40,-6.40
2009,12,07,00,41,-6.40
2009,12,07,00,42,-6.40
2009,12,07,00,43,-6.40
2009,12,07,00,44,-6.30
2009,12,07,00,45,-6.30
2009,12,07,00,46,-6.30
2009,12,07,00,47,-6.30
2009,12,07,00,48,-6.30
2009,12,07,00,49,-6.40
2009,12,07,00,50,-6.40
2009,12,07,00,51,-6.40
2009,12,07,00,52,-6.40
2009,12,07,00,53,-6.40
2009,12,07,00,54,-6.40
2009,12,07,00,55,-6.40
2009,12,07,00,56,-6.40
2009,12,07,00,57,-6.40
2009,12,07,00,58,-6.50
2009,12,07,00,59,-6.50
2009,12,07,01,00,-6.50
2009,12,07,01,01,-6.50
2009,12,07,01,02,-6.50
2009,12,07,01,03,-6.50
2009,12,07,01,04,-6.50
2009,12,07,01,05,-6.60
2009,12,07,01,06,-6.60
2009,12,07,01,07,-6.70
2009,12,07,01,08,-6.70
2009,12,07,01,09,-6.70
2009,12,07,01,10,-6.80
2009,12,07,01,11,-6.80
2009,12,07,01,12,-6.80
2009,12,07,01,13,-6.80
2009,12,07,01,14,-6.70
2009,12,07,01,15,-6.70
2009,12,07,01,16,-6.70
2009,12,07,01,17,-6.70
2009,12,07,01,18,-6.70
2009,12,07,01,19,-6.70
2009,12,07,01,20,-6.60
2009,12,07,01,21,-6.70
2009,12,07,01,22,-6.70
2009,12,07,01,23,-6.70
2009,12,07,01,24,-6.70
2009,12,07,01,25,-6.70
2009,12,07,01,26,-6.70
2009,12,07,01,27,-6.60
2009,12,07,01,28,-6.60
2009,12,07,01,29,-6.60
2009,12,07,01,30,-6.60
2009,12,07,01,31,-6.60
2009,12,07,01,32,-6.60
2009,12,07,01,33,-6.60
2009,12,07,01,34,-6.60
2009,12,07,01,35,-6.60
2009,12,07,01,36,-6.60
2009,12,07,01,37,-6.70
2009,12,07,01,38,-6.70
2009,12,07,01,39,-6.70
2009,12,07,01,40,-6.80
2009,12,07,01,41,-6.80
2009,12,07,01,42,-6.80
2009,12,07,01,43,-6.80
2009,12,07,01,44,-6.80
2009,12,07,01,45,-6.80
2009,12,07,01,46,-6.80
2009,12,07,01,47,-6.80
2009,12,07,01,48,-6.80
2009,12,07,01,49,-6.80
2009,12,07,01,50,-6.80
2009,12,07,01,51,-6.80
2009,12,07,01,52,-6.80
2009,12,07,01,53,-6.90
2009,12,07,01,54,-6.90
2009,12,07,01,55,-6.90
2009,12,07,01,56,-7.00
2009,12,07,01,57,-7.00
2009,12,07,01,58,-7.10
2009,12,07,01,59,-7.10
2009,12,07,02,00,-7.10
2009,12,07,02,01,-7.10
2009,12,07,02,02,-7.10
2009,12,07,02,03,-7.00
2009,12,07,02,04,-7.00
2009,12,07,02,05,-6.90
2009,12,07,02,06,-6.90
2009,12,07,02,07,-6.80
2009,12,07,02,08,-6.80
2009,12,07,02,09,-6.80
2009,12,07,02,10,-6.80
2009,12,07,02,11,-6.70
2009,12,07,02,12,-6.70
2009,12,07,02,13,-6.60
2009,12,07,02,14,-6.60
2009,12,07,02,15,-6.50
2009,12,07,02,16,-6.50
2009,12,07,02,17,-6.40
2009,12,07,02,18,-6.40
2009,12,07,02,19,-6.40
2009,12,07,02,20,-6.40
2009,12,07,02,21,-6.50
2009,12,07,02,22,-6.50
2009,12,07,02,23,-6.60
2009,12,07,02,24,-6.60
2009,12,07,02,25,-6.60
2009,12,07,02,26,-6.70
2009,12,07,02,27,-6.70
2009,12,07,02,28,-6.80
2009,12,07,02,29,-6.80
2009,12,07,02,30,-6.80
2009,12,07,02,31,-6.80
2009,12,07,02,32,-6.80
2009,12,07,02,33,-6.90
2009,12,07,02,34,-6.90
2009,12,07,02,35,-6.90
2009,12,07,02,36,-7.00
2009,12,07,02,37,-7.00
2009,12,07,02,38,-7.00
2009,12,07,02,39,-7.10
2009,12,07,02,40,-7.10
2009,12,07,02,41,-7.10
2009,12,07,02,42,-7.10
2009,12,07,02,43,-7.20
2009,12,07,02,44,-7.20
2009,12,07,02,45,-7.20
2009,12,07,02,46,-7.20
2009,12,07,02,47,-7.20
2009,12,07,02,48,-7.30
2009,12,07,02,49,-7.30
2009,12,07,02,50,-7.30
2009,12,07,02,51,-7.20
2009,12,07,02,52,-7.20
2009,12,07,02,53,-7.20
2009,12,07,02,54,-7.20
2009,12,07,02,55,-7.20
2009,12,07,02,56,-7.20
2009,12,07,02,57,-7.20
2009,12,07,02,58,-7.20
2009,12,07,02,59,-7.20
2009,12,07,03,00,-7.20
2009,12,07,03,01,-7.20
2009,12,07,03,02,-7.10
2009,12,07,03,03,-7.10
2009,12,07,03,06,-7.10
2009,12,07,03,07,-7.10
2009,12,07,03,08,-7.10
2009,12,07,03,09,-7.10
2009,12,07,03,10,-7.10
2009,12,07,03,11,-7.10
2009,12,07,03,12,-7.10
2009,12,07,03,13,-7.10
2009,12,07,03,14,-7.10
2009,12,07,03,15,-7.10
2009,12,07,03,16,-7.10
2009,12,07,03,17,-7.10
2009,12,07,03,18,-7.20
2009,12,07,03,19,-7.20
2009,12,07,03,20,-7.30
2009,12,07,03,21,-7.30
2009,12,07,03,22,-7.30
2009,12,07,03,23,-7.30
2009,12,07,03,24,-7.30
2009,12,07,03,25,-7.40
2009,12,07,03,26,-7.40
2009,12,07,03,27,-7.40
2009,12,07,03,28,-7.40
2009,12,07,03,29,-7.40
2009,12,07,03,30,-7.50
2009,12,07,03,31,-7.50
2009,12,07,03,32,-7.50
2009,12,07,03,33,-7.50
2009,12,07,03,34,-7.50
2009,12,07,03,35,-7.50
2009,12,07,03,36,-7.60
2009,12,07,03,37,-7.60
2009,12,07,03,38,-7.60
2009,12,07,03,39,-7.60
2009,12,07,03,40,-7.50
2009,12,07,03,41,-7.50
2009,12,07,03,42,-7.50
2009,12,07,03,43,-7.50
2009,12,07,03,44,-7.50
2009,12,07,03,45,-7.50
2009,12,07,03,46,-7.50
2009,12,07,03,47,-7.50
2009,12,07,03,48,-7.60
2009,12,07,03,49,-7.60
2009,12,07,03,50,-7.60
2009,12,07,03,51,-7.60
2009,12,07,03,52,-7.60
2009,12,07,03,53,-7.60
2009,12,07,03,54,-7.60
2009,12,07,03,55,-7.60
2009,12,07,03,56,-7.60
2009,12,07,03,57,-7.60
2009,12,07,03,58,-7.60
2009,12,07,03,59,-7.60
2009,12,07,04,00,-7.60
2009,12,07,04,01,-7.60
2009,12,07,04,02,-7.60
2009,12,07,04,03,-7.60
2009,12,07,04,04,-7.60
2009,12,07,04,05,-7.60
2009,12,07,04,06,-7.70
2009,12,07,04,07,-7.70
2009,12,07,04,08,-7.70
2009,12,07,04,09,-7.70
2009,12,07,04,10,-7.70
2009,12,07,04,11,-7.70
2009,12,07,04,12,-7.70
2009,12,07,04,13,-7.70
2009,12,07,04,14,-7.70
2009,12,07,04,15,-7.70
2009,12,07,04,16,-7.70
2009,12,07,04,17,-7.70
2009,12,07,04,18,-7.70
2009,12,07,04,19,-7.70
2009,12,07,04,20,-7.70
2009,12,07,04,21,-7.70
2009,12,07,04,22,-7.70
2009,12,07,04,23,-7.70
2009,12,07,04,24,-7.70
2009,12,07,04,25,-7.70
2009,12,07,04,26,-7.70
2009,12,07,04,27,-7.70
2009,12,07,04,28,-7.80
2009,12,07,04,29,-7.80
2009,12,07,04,30,-7.80
2009,12,07,04,31,-7.80
2009,12,07,04,32,-7.80
2009,12,07,04,33,-7.90
2009,12,07,04,34,-7.90
2009,12,07,04,35,-7.90
2009,12,07,04,36,-7.90
2009,12,07,04,37,-7.90
2009,12,07,04,38,-7.90
2009,12,07,04,39,-7.90
2009,12,07,04,40,-7.90
2009,12,07,04,41,-7.90
2009,12,07,04,42,-7.80
2009,12,07,04,43,-7.80
2009,12,07,04,44,-7.80
2009,12,07,04,45,-7.80
2009,12,07,04,46,-7.80
2009,12,07,04,47,-7.80
2009,12,07,04,48,-7.80
2009,12,07,04,49,-7.90
2009,12,07,04,50,-7.90
2009,12,07,04,51,-7.90
2009,12,07,04,52,-7.90
2009,12,07,04,53,-7.90
2009,12,07,04,54,-7.80
2009,12,07,04,55,-7.80
2009,12,07,04,56,-7.80
2009,12,07,04,57,-7.80
2009,12,07,04,58,-7.80
2009,12,07,04,59,-7.80
2009,12,07,05,00,-7.80
2009,12,07,05,01,-7.80
2009,12,07,05,02,-7.80
2009,12,07,05,03,-7.80
2009,12,07,05,04,-7.80
2009,12,07,05,05,-7.80
2009,12,07,05,06,-7.80
2009,12,07,05,07,-7.80
2009,12,07,05,08,-7.80
2009,12,07,05,09,-7.80
2009,12,07,05,10,-7.90
2009,12,07,05,11,-7.90
2009,12,07,05,12,-7.90
2009,12,07,05,13,-7.90
2009,12,07,05,14,-7.90
2009,12,07,05,15,-7.90
2009,12,07,05,16,-7.90
2009,12,07,05,17,-7.90
2009,12,07,05,18,-7.90
2009,12,07,05,19,-7.90
2009,12,07,05,20,-7.90
2009,12,07,05,21,-7.90
2009,12,07,05,22,-7.90
2009,12,07,05,23,-7.90
2009,12,07,05,24,-7.90
2009,12,07,05,25,-7.90
2009,12,07,05,26,-8.00
2009,12,07,05,27,-8.00
2009,12,07,05,28,-8.00
2009,12,07,05,29,-8.10
2009,12,07,05,30,-8.10
2009,12,07,05,31,-8.20
2009,12,07,05,32,-8.20
2009,12,07,05,33,-8.20
2009,12,07,05,34,-8.20
2009,12,07,05,35,-8.20
2009,12,07,05,36,-8.20
2009,12,07,05,37,-8.20
2009,12,07,05,38,-8.20
2009,12,07,05,39,-8.20
2009,12,07,05,40,-8.10
2009,12,07,05,41,-8.10
2009,12,07,05,42,-8.10
2009,12,07,05,43,-8.10
2009,12,07,05,44,-8.10
2009,12,07,05,45,-8.10
2009,12,07,05,46,-8.20
2009,12,07,05,47,-8.20
2009,12,07,05,48,-8.20
2009,12,07,05,49,-8.20
2009,12,07,05,50,-8.20
2009,12,07,05,51,-8.20
2009,12,07,05,52,-8.20
2009,12,07,05,53,-8.20
2009,12,07,05,54,-8.20
2009,12,07,05,55,-8.20
2009,12,07,05,56,-8.30
2009,12,07,05,57,-8.30
2009,12,07,05,58,-8.30
2009,12,07,05,59,-8.30
2009,12,07,06,00,-8.30
2009,12,07,06,01,-8.30
2009,12,07,06,02,-8.30
2009,12,07,06,03,-8.30
2009,12,07,06,04,-8.30
2009,12,07,06,05,-8.30
2009,12,07,06,06,-8.20
2009,12,07,06,07,-8.20
2009,12,07,06,08,-8.20
2009,12,07,06,09,-8.20
2009,12,07,06,10,-8.20
2009,12,07,06,11,-8.10
2009,12,07,06,12,-8.10
2009,12,07,06,13,-8.10
2009,12,07,06,14,-8.10
2009,12,07,06,15,-8.10
2009,12,07,06,16,-8.10
2009,12,07,06,17,-8.10
2009,12,07,06,18,-8.10
2009,12,07,06,19,-8.10
2009,12,07,06,20,-8.10
2009,12,07,06,21,-8.10
2009,12,07,06,22,-8.10
2009,12,07,06,23,-8.10
2009,12,07,06,24,-8.10
2009,12,07,06,25,-8.10
2009,12,07,06,26,-8.00
2009,12,07,06,27,-8.00
2009,12,07,06,28,-8.00
2009,12,07,06,29,-7.90
2009,12,07,06,30,-7.90
2009,12,07,06,31,-7.90
2009,12,07,06,32,-7.90
2009,12,07,06,33,-7.80
2009,12,07,06,34,-7.90
2009,12,07,06,35,-7.90
2009,12,07,06,36,-7.90
2009,12,07,06,37,-7.90
2009,12,07,06,38,-7.90
2009,12,07,06,39,-7.90
2009,12,07,06,40,-8.00
2009,12,07,06,41,-8.00
2009,12,07,06,42,-8.00
2009,12,07,06,43,-8.00
2009,12,07,06,44,-8.00
2009,12,07,06,45,-8.10
2009,12,07,06,46,-8.10
2009,12,07,06,47,-8.20
2009,12,07,06,48,-8.20
2009,12,07,06,49,-8.20
2009,12,07,06,50,-8.30
2009,12,07,06,51,-8.30
2009,12,07,06,52,-8.30
2009,12,07,06,53,-8.40
2009,12,07,06,54,-8.40
2009,12,07,06,55,-8.40
2009,12,07,06,56,-8.40
2009,12,07,06,57,-8.40
2009,12,07,06,58,-8.40
2009,12,07,06,59,-8.40
2009,12,07,07,00,-8.40
2009,12,07,07,01,-8.40
2009,12,07,07,02,-8.40
2009,12,07,07,03,-8.40
2009,12,07,07,04,-8.40
2009,12,07,07,05,-8.40
2009,12,07,07,06,-8.40
2009,12,07,07,07,-8.40
2009,12,07,07,08,-8.40
2009,12,07,07,09,-8.50
2009,12,07,07,10,-8.50
2009,12,07,07,11,-8.50
2009,12,07,07,12,-8.50
2009,12,07,07,13,-8.50
2009,12,07,07,14,-8.50
2009,12,07,07,15,-8.60
2009,12,07,07,16,-8.60
2009,12,07,07,17,-8.60
2009,12,07,07,18,-8.60
2009,12,07,07,19,-8.60
2009,12,07,07,20,-8.60
2009,12,07,07,21,-8.60
2009,12,07,07,22,-8.60
2009,12,07,07,23,-8.60
2009,12,07,07,24,-8.60
2009,12,07,07,25,-8.60
2009,12,07,07,26,-8.60
2009,12,07,07,27,-8.60
2009,12,07,07,28,-8.60
2009,12,07,07,29,-8.60
2009,12,07,07,30,-8.60
2009,12,07,07,31,-8.60
2009,12,07,07,32,-8.60
2009,12,07,07,33,-8.60
2009,12,07,07,34,-8.60
2009,12,07,07,35,-8.60
2009,12,07,07,36,-8.50
2009,12,07,07,37,-8.50
2009,12,07,07,38,-8.50
2009,12,07,07,39,-8.50
2009,12,07,07,40,-8.50
2009,12,07,07,41,-8.50
2009,12,07,07,42,-8.50
2009,12,07,07,43,-8.50
2009,12,07,07,44,-8.40
2009,12,07,07,45,-8.40
2009,12,07,07,46,-8.50
2009,12,07,07,47,-8.50
2009,12,07,07,48,-8.50
2009,12,07,07,49,-8.50
2009,12,07,07,50,-8.50
2009,12,07,07,51,-8.60
2009,12,07,07,52,-8.50
2009,12,07,07,53,-8.50
2009,12,07,07,54,-8.50
2009,12,07,07,55,-8.40
2009,12,07,07,56,-8.40
2009,12,07,07,57,-8.40
2009,12,07,07,58,-8.40
2009,12,07,07,59,-8.40
2009,12,07,08,00,-8.40
2009,12,07,08,01,-8.40
2009,12,07,08,02,-8.40
2009,12,07,08,03,-8.40
2009,12,07,08,04,-8.50
2009,12,07,08,05,-8.50
2009,12,07,08,06,-8.50
2009,12,07,08,07,-8.60
2009,12,07,08,08,-8.60
2009,12,07,08,09,-8.60
2009,12,07,08,10,-8.60
2009,12,07,08,11,-8.60
2009,12,07,08,12,-8.70
2009,12,07,08,13,-8.70
2009,12,07,08,14,-8.70
2009,12,07,08,15,-8.70
2009,12,07,08,16,-8.60
2009,12,07,08,17,-8.60
2009,12,07,08,18,-8.60
2009,12,07,08,19,-8.50
2009,12,07,08,20,-8.50
2009,12,07,08,21,-8.40
2009,12,07,08,22,-8.40
2009,12,07,08,23,-8.40
2009,12,07,08,24,-8.30
2009,12,07,08,25,-8.30
2009,12,07,08,26,-8.30
2009,12,07,08,27,-8.30
2009,12,07,08,28,-8.30
2009,12,07,08,29,-8.30
2009,12,07,08,30,-8.30
2009,12,07,08,31,-8.30
2009,12,07,08,32,-8.30
2009,12,07,08,33,-8.30
2009,12,07,08,34,-8.30
2009,12,07,08,35,-8.30
2009,12,07,08,36,-8.20
2009,12,07,08,37,-8.20
2009,12,07,08,38,-8.10
2009,12,07,08,39,-8.00
2009,12,07,08,40,-7.90
2009,12,07,08,41,-7.90
2009,12,07,08,42,-7.80
2009,12,07,08,43,-7.80
2009,12,07,08,44,-7.80
2009,12,07,08,45,-7.80
2009,12,07,08,46,-7.70
2009,12,07,08,47,-7.70
2009,12,07,08,48,-7.70
2009,12,07,08,49,-7.70
2009,12,07,08,50,-7.70
2009,12,07,08,51,-7.70
2009,12,07,08,52,-7.60
2009,12,07,08,53,-7.60
2009,12,07,08,54,-7.60
2009,12,07,08,55,-7.60
2009,12,07,08,56,-7.60
2009,12,07,08,57,-7.60
2009,12,07,08,58,-7.60
2009,12,07,08,59,-7.50
2009,12,07,09,00,-7.50
2009,12,07,09,01,-7.50
2009,12,07,09,02,-7.50
2009,12,07,09,03,-7.40
2009,12,07,09,04,-7.40
2009,12,07,09,05,-7.40
2009,12,07,09,06,-7.40
2009,12,07,09,07,-7.40
2009,12,07,09,08,-7.30
2009,12,07,09,09,-7.30
2009,12,07,09,10,-7.20
2009,12,07,09,11,-7.20
2009,12,07,09,12,-7.10
2009,12,07,09,13,-7.00
2009,12,07,09,14,-7.00
2009,12,07,09,15,-6.90
2009,12,07,09,16,-6.80
2009,12,07,09,17,-6.80
2009,12,07,09,18,-6.80
2009,12,07,09,19,-6.70
2009,12,07,09,20,-6.60
2009,12,07,09,21,-6.50
2009,12,07,09,22,-6.40
2009,12,07,09,23,-6.30
2009,12,07,09,24,-6.20
2009,12,07,09,25,-6.10
2009,12,07,09,26,-6.00
2009,12,07,09,27,-5.90
2009,12,07,09,28,-5.90
2009,12,07,09,29,-5.80
2009,12,07,09,30,-5.80
2009,12,07,09,31,-5.80
2009,12,07,09,32,-5.70
2009,12,07,09,33,-5.70
2009,12,07,09,34,-5.60
2009,12,07,09,35,-5.60
2009,12,07,09,36,-5.50
2009,12,07,09,37,-5.50
2009,12,07,09,38,-5.40
2009,12,07,09,39,-5.40
2009,12,07,09,40,-5.30
2009,12,07,09,41,-5.20
2009,12,07,09,42,-5.10
2009,12,07,09,43,-5.00
2009,12,07,09,44,-5.00
2009,12,07,09,45,-4.90
2009,12,07,09,46,-4.80
2009,12,07,09,47,-4.70
2009,12,07,09,48,-4.50
2009,12,07,09,49,-4.30
2009,12,07,09,50,-4.20
2009,12,07,09,51,-4.00
2009,12,07,09,52,-3.90
2009,12,07,09,53,-3.80
2009,12,07,09,54,-3.70
2009,12,07,09,55,-3.60
2009,12,07,09,56,-3.50
2009,12,07,09,57,-3.40
2009,12,07,09,58,-3.40
2009,12,07,09,59,-3.40
2009,12,07,10,00,-3.40
2009,12,07,10,01,-3.40
2009,12,07,10,02,-3.40
2009,12,07,10,03,-3.40
2009,12,07,10,04,-3.40
2009,12,07,10,05,-3.40
2009,12,07,10,06,-3.40
2009,12,07,10,07,-3.40
2009,12,07,10,08,-3.40
2009,12,07,10,09,-3.40
2009,12,07,10,10,-3.40
2009,12,07,10,11,-3.30
2009,12,07,10,12,-3.30
2009,12,07,10,13,-3.20
2009,12,07,10,14,-3.20
2009,12,07,10,15,-3.10
2009,12,07,10,16,-3.10
2009,12,07,10,17,-3.00
2009,12,07,10,18,-2.90
2009,12,07,10,19,-2.80
2009,12,07,10,20,-2.70
2009,12,07,10,21,-2.60
2009,12,07,10,22,-2.40
2009,12,07,10,23,-2.30
2009,12,07,10,24,-2.20
2009,12,07,10,25,-2.10
2009,12,07,10,26,-2.00
2009,12,07,10,27,-1.90
2009,12,07,10,28,-1.90
2009,12,07,10,29,-1.80
2009,12,07,10,30,-1.80
2009,12,07,10,31,-1.70
2009,12,07,10,32,-1.70
2009,12,07,10,33,-1.70
2009,12,07,10,34,-1.60
2009,12,07,10,35,-1.60
2009,12,07,10,36,-1.50
2009,12,07,10,37,-1.50
2009,12,07,10,38,-1.50
2009,12,07,10,39,-1.40
2009,12,07,10,40,-1.30
2009,12,07,10,41,-1.30
2009,12,07,10,42,-1.20
2009,12,07,10,43,-1.10
2009,12,07,10,44,-1.00
2009,12,07,10,45,-0.90
2009,12,07,10,46,-0.70
2009,12,07,10,47,-0.60
2009,12,07,10,48,-0.40
2009,12,07,10,49,-0.30
2009,12,07,10,50,-0.10
2009,12,07,10,51,0.00
2009,12,07,10,52,0.20
2009,12,07,10,53,0.30
2009,12,07,10,54,0.40
2009,12,07,10,55,0.40
2009,12,07,10,56,0.40
2009,12,07,10,57,0.50
2009,12,07,10,58,0.40
2009,12,07,10,59,0.40
2009,12,07,11,00,0.40
2009,12,07,11,01,0.50
2009,12,07,11,02,0.50
2009,12,07,11,03,0.60
2009,12,07,11,04,0.60
2009,12,07,11,05,0.60
2009,12,07,11,06,0.70
2009,12,07,11,07,0.80
2009,12,07,11,08,0.90
2009,12,07,11,09,0.90
2009,12,07,11,10,0.90
2009,12,07,11,11,0.90
2009,12,07,11,12,0.90
2009,12,07,11,13,1.00
2009,12,07,11,14,1.00
2009,12,07,11,15,1.00
2009,12,07,11,16,1.00
2009,12,07,11,17,1.10
2009,12,07,11,18,1.10
2009,12,07,11,19,1.10
2009,12,07,11,20,1.10
2009,12,07,11,21,1.10
2009,12,07,11,22,1.10
2009,12,07,11,23,1.10
2009,12,07,11,24,1.20
2009,12,07,11,25,1.20
2009,12,07,11,26,1.30
2009,12,07,11,27,1.30
2009,12,07,11,28,1.30
2009,12,07,11,29,1.30
2009,12,07,11,30,1.30
2009,12,07,11,31,1.30
2009,12,07,11,32,1.30
2009,12,07,11,33,1.30
2009,12,07,11,34,1.20
2009,12,07,11,35,1.20
2009,12,07,11,36,1.20
2009,12,07,11,37,1.20
2009,12,07,11,38,1.10
2009,12,07,11,39,1.10
2009,12,07,11,40,1.10
2009,12,07,11,41,1.10
2009,12,07,11,42,1.10
2009,12,07,11,43,1.10
2009,12,07,11,44,1.00
2009,12,07,11,45,0.90
2009,12,07,11,46,0.80
2009,12,07,11,47,0.80
2009,12,07,11,48,0.80
2009,12,07,11,49,0.80
2009,12,07,11,50,0.80
2009,12,07,11,51,0.80
2009,12,07,11,52,0.80
2009,12,07,11,53,0.80
2009,12,07,11,54,0.80
2009,12,07,11,55,0.80
2009,12,07,11,56,0.90
2009,12,07,11,57,0.90
2009,12,07,11,58,1.00
2009,12,07,11,59,1.00
2009,12,07,12,00,1.00
2009,12,07,12,01,1.00
2009,12,07,12,02,1.00
2009,12,07,12,03,1.00
2009,12,07,12,04,1.00
2009,12,07,12,05,1.00
2009,12,07,12,06,1.00
2009,12,07,12,07,1.00
2009,12,07,12,08,1.00
2009,12,07,12,09,1.10
2009,12,07,12,10,1.00
2009,12,07,12,11,1.00
2009,12,07,12,12,1.00
2009,12,07,12,13,1.10
2009,12,07,12,14,1.10
2009,12,07,12,15,1.10
2009,12,07,12,16,1.10
2009,12,07,12,17,1.10
2009,12,07,12,18,1.10
2009,12,07,12,19,1.10
2009,12,07,12,20,1.10
2009,12,07,12,21,1.10
2009,12,07,12,22,1.10
2009,12,07,12,23,1.10
2009,12,07,12,24,1.20
2009,12,07,12,25,1.20
2009,12,07,12,26,1.30
2009,12,07,12,27,1.30
2009,12,07,12,28,1.20
2009,12,07,12,29,1.20
2009,12,07,12,30,1.10
2009,12,07,12,31,1.20
2009,12,07,12,32,1.20
2009,12,07,12,33,1.20
2009,12,07,12,34,1.10
2009,12,07,12,35,1.10
2009,12,07,12,36,1.10
2009,12,07,12,37,1.10
2009,12,07,12,38,1.10
2009,12,07,12,39,1.10
2009,12,07,12,40,1.10
2009,12,07,12,41,1.10
2009,12,07,12,42,1.10
2009,12,07,12,43,1.10
2009,12,07,12,44,1.10
2009,12,07,12,45,1.00
2009,12,07,12,46,1.00
2009,12,07,12,47,0.90
2009,12,07,12,48,0.90
2009,12,07,12,49,0.90
2009,12,07,12,50,0.90
2009,12,07,12,51,1.00
2009,12,07,12,52,1.00
2009,12,07,12,53,1.00
2009,12,07,12,54,1.00
2009,12,07,12,55,1.10
2009,12,07,12,56,1.10
2009,12,07,12,57,1.10
2009,12,07,12,58,1.10
2009,12,07,12,59,1.20
2009,12,07,13,00,1.20
2009,12,07,13,01,1.20
2009,12,07,13,02,1.20
2009,12,07,13,03,1.20
2009,12,07,13,04,1.20
2009,12,07,13,05,1.20
2009,12,07,13,06,1.10
2009,12,07,13,07,1.10
2009,12,07,13,08,1.10
2009,12,07,13,09,1.00
2009,12,07,13,10,1.00
2009,12,07,13,11,1.00
2009,12,07,13,12,1.00
2009,12,07,13,13,1.00
2009,12,07,13,14,1.00
2009,12,07,13,15,1.10
2009,12,07,13,16,1.10
2009,12,07,13,17,1.10
2009,12,07,13,18,1.10
2009,12,07,13,19,1.10
2009,12,07,13,20,1.10
2009,12,07,13,21,1.20
2009,12,07,13,22,1.20
2009,12,07,13,23,1.20
2009,12,07,13,24,1.20
2009,12,07,13,25,1.10
2009,12,07,13,26,1.20
2009,12,07,13,27,1.20
2009,12,07,13,28,1.30
2009,12,07,13,29,1.30
2009,12,07,13,30,1.20
2009,12,07,13,31,1.20
2009,12,07,13,32,1.20
2009,12,07,13,33,1.30
2009,12,07,13,34,1.30
2009,12,07,13,35,1.30
2009,12,07,13,36,1.30
2009,12,07,13,37,1.30
2009,12,07,13,38,1.30
2009,12,07,13,39,1.30
2009,12,07,13,40,1.30
2009,12,07,13,41,1.30
2009,12,07,13,42,1.30
2009,12,07,13,43,1.30
2009,12,07,13,44,1.30
2009,12,07,13,45,1.30
2009,12,07,13,46,1.30
2009,12,07,13,47,1.30
2009,12,07,13,48,1.30
2009,12,07,13,49,1.20
2009,12,07,13,50,1.30
2009,12,07,13,51,1.30
2009,12,07,13,52,1.40
2009,12,07,13,53,1.50
2009,12,07,13,54,1.60
2009,12,07,13,55,1.60
2009,12,07,13,56,1.70
2009,12,07,13,57,1.70
2009,12,07,13,58,1.60
2009,12,07,13,59,1.60
2009,12,07,14,00,1.50
2009,12,07,14,01,1.60
2009,12,07,14,02,1.60
2009,12,07,14,03,1.70
2009,12,07,14,04,1.70
2009,12,07,14,05,1.70
2009,12,07,14,06,1.60
2009,12,07,14,07,1.50
2009,12,07,14,08,1.50
2009,12,07,14,09,1.50
2009,12,07,14,10,1.40
2009,12,07,14,11,1.40
2009,12,07,14,12,1.40
2009,12,07,14,13,1.40
2009,12,07,14,14,1.50
2009,12,07,14,15,1.50
2009,12,07,14,16,1.40
2009,12,07,14,17,1.30
2009,12,07,14,18,1.30
2009,12,07,14,19,1.30
2009,12,07,14,20,1.20
2009,12,07,14,21,1.20
2009,12,07,14,22,1.10
2009,12,07,14,23,1.10
2009,12,07,14,24,1.10
2009,12,07,14,25,1.00
2009,12,07,14,26,1.00
2009,12,07,14,27,0.90
2009,12,07,14,28,0.90
2009,12,07,14,29,0.90
2009,12,07,14,30,0.90
2009,12,07,14,31,1.00
2009,12,07,14,32,1.00
2009,12,07,14,33,1.00
2009,12,07,14,34,1.00
2009,12,07,14,35,1.00
2009,12,07,14,36,1.00
2009,12,07,14,37,1.10
2009,12,07,14,38,1.00
2009,12,07,14,39,1.00
2009,12,07,14,40,1.00
2009,12,07,14,41,1.00
2009,12,07,14,42,1.00
2009,12,07,14,43,0.90
2009,12,07,14,44,0.90
2009,12,07,14,45,0.90
2009,12,07,14,46,0.80
2009,12,07,14,47,0.80
2009,12,07,14,48,0.70
2009,12,07,14,49,0.70
2009,12,07,14,50,0.60
2009,12,07,14,51,0.60
2009,12,07,14,52,0.50
2009,12,07,14,53,0.50
2009,12,07,14,54,0.40
2009,12,07,14,55,0.40
2009,12,07,14,56,0.40
2009,12,07,14,57,0.40
2009,12,07,14,58,0.40
2009,12,07,14,59,0.40
2009,12,07,15,00,0.40
2009,12,07,15,01,0.30
2009,12,07,15,02,0.30
2009,12,07,15,03,0.30
2009,12,07,15,04,0.30
2009,12,07,15,05,0.20
2009,12,07,15,06,0.20
2009,12,07,15,07,0.20
2009,12,07,15,08,0.20
2009,12,07,15,09,0.20
2009,12,07,15,10,0.10
2009,12,07,15,11,0.10
2009,12,07,15,12,0.10
2009,12,07,15,13,0.10
2009,12,07,15,14,0.10
2009,12,07,15,15,0.10
2009,12,07,15,16,0.10
2009,12,07,15,17,0.10
2009,12,07,15,18,0.10
2009,12,07,15,19,0.10
2009,12,07,15,20,0.10
2009,12,07,15,21,0.10
2009,12,07,15,22,0.10
2009,12,07,15,23,0.10
2009,12,07,15,24,0.10
2009,12,07,15,25,0.00
2009,12,07,15,26,0.00
2009,12,07,15,27,-0.10
2009,12,07,15,28,-0.10
2009,12,07,15,29,-0.10
2009,12,07,15,30,-0.20
2009,12,07,15,31,-0.30
2009,12,07,15,32,-0.30
2009,12,07,15,33,-0.30
2009,12,07,15,34,-0.40
2009,12,07,15,35,-0.50
2009,12,07,15,36,-0.50
2009,12,07,15,37,-0.60
2009,12,07,15,38,-0.60
2009,12,07,15,39,-0.60
2009,12,07,15,40,-0.60
2009,12,07,15,41,-0.70
2009,12,07,15,42,-0.70
2009,12,07,15,43,-0.80
2009,12,07,15,44,-0.80
2009,12,07,15,45,-0.80
2009,12,07,15,46,-0.90
2009,12,07,15,47,-0.90
2009,12,07,15,48,-1.00
2009,12,07,15,49,-1.00
2009,12,07,15,50,-1.10
2009,12,07,15,51,-1.20
2009,12,07,15,52,-1.20
2009,12,07,15,53,-1.20
2009,12,07,15,54,-1.30
2009,12,07,15,55,-1.30
2009,12,07,15,56,-1.30
2009,12,07,15,57,-1.40
2009,12,07,15,58,-1.40
2009,12,07,15,59,-1.40
2009,12,07,16,00,-1.40
2009,12,07,16,01,-1.40
2009,12,07,16,02,-1.40
2009,12,07,16,03,-1.40
2009,12,07,16,04,-1.40
2009,12,07,16,05,-1.40
2009,12,07,16,06,-1.40
2009,12,07,16,07,-1.40
2009,12,07,16,08,-1.40
2009,12,07,16,09,-1.40
2009,12,07,16,10,-1.40
2009,12,07,16,11,-1.40
2009,12,07,16,12,-1.40
2009,12,07,16,13,-1.40
2009,12,07,16,14,-1.40
2009,12,07,16,15,-1.50
2009,12,07,16,16,-1.50
2009,12,07,16,17,-1.60
2009,12,07,16,18,-1.60
2009,12,07,16,19,-1.70
2009,12,07,16,20,-1.70
2009,12,07,16,21,-1.80
2009,12,07,16,22,-1.80
2009,12,07,16,23,-1.90
2009,12,07,16,24,-1.90
2009,12,07,16,25,-2.00
2009,12,07,16,26,-2.10
2009,12,07,16,27,-2.10
2009,12,07,16,28,-2.10
2009,12,07,16,29,-2.20
2009,12,07,16,30,-2.20
2009,12,07,16,31,-2.20
2009,12,07,16,32,-2.30
2009,12,07,16,33,-2.30
2009,12,07,16,34,-2.30
2009,12,07,16,35,-2.40
2009,12,07,16,36,-2.40
2009,12,07,16,37,-2.40
2009,12,07,16,38,-2.40
2009,12,07,16,39,-2.50
2009,12,07,16,40,-2.50
2009,12,07,16,41,-2.50
2009,12,07,16,42,-2.50
2009,12,07,16,43,-2.50
2009,12,07,16,44,-2.50
2009,12,07,16,45,-2.50
2009,12,07,16,46,-2.40
2009,12,07,16,47,-2.40
2009,12,07,16,48,-2.40
2009,12,07,16,49,-2.30
2009,12,07,16,50,-2.30
2009,12,07,16,51,-2.40
2009,12,07,16,52,-2.40
2009,12,07,16,53,-2.40
2009,12,07,16,54,-2.50
2009,12,07,16,55,-2.60
2009,12,07,16,56,-2.60
2009,12,07,16,57,-2.70
2009,12,07,16,58,-2.70
2009,12,07,16,59,-2.80
2009,12,07,17,00,-2.80
2009,12,07,17,01,-2.80
2009,12,07,17,02,-2.90
2009,12,07,17,03,-2.90
2009,12,07,17,04,-2.90
2009,12,07,17,05,-2.90
2009,12,07,17,06,-2.90
2009,12,07,17,07,-2.90
2009,12,07,17,08,-3.00
2009,12,07,17,09,-3.00
2009,12,07,17,10,-3.00
2009,12,07,17,11,-3.00
2009,12,07,17,12,-3.00
2009,12,07,17,13,-3.10
2009,12,07,17,14,-3.10
2009,12,07,17,15,-3.10
2009,12,07,17,16,-3.20
2009,12,07,17,17,-3.20
2009,12,07,17,18,-3.20
2009,12,07,17,19,-3.20
2009,12,07,17,20,-3.20
2009,12,07,17,21,-3.30
2009,12,07,17,22,-3.30
2009,12,07,17,23,-3.40
2009,12,07,17,24,-3.40
2009,12,07,17,25,-3.50
2009,12,07,17,26,-3.50
2009,12,07,17,27,-3.50
2009,12,07,17,28,-3.50
2009,12,07,17,29,-3.60
2009,12,07,17,30,-3.60
2009,12,07,17,31,-3.60
2009,12,07,17,32,-3.60
2009,12,07,17,33,-3.60